Wind_Speed
61 61 60 61 60 60 60 60 59 59 58 57 56 56 56 56 55 55 54 54 53 52 51 52 52 52 52 54 56 57 59 60 61 61 60 59 57 55 53 51 49 47 46 47 46 45 44 44 49 54 62 72 78 79 81 84 86 85 83 79 77 77 76 72 69 68 67 65 64 63 62 61 60 57 56 55 51 48 47 46 45 43 41 40 39
64 64 63 62 62 62 62 62 61 60 59 58 57 57 56 57 56 56 55 55 54 54 53 53 54 54 55 56 58 60 61 62 62 62 62 61 59 57 55 53 51 48 47 47 47 46 44 44 47 52 59 69 79 81 81 84 87 88 87 84 82 81 79 74 71 71 69 66 64 64 63 61 61 60 59 57 54 52 50 48 47 46 44 42 41
65 66 65 64 64 64 64 64 63 61 60 59 58 57 57 57 57 56 56 56 55 55 55 55 55 56 57 58 60 62 63 63 63 63 62 62 61 60 58 55 53 50 48 47 47 46 45 43 45 51 57 66 76 82 82 83 86 89 90 88 87 86 84 81 78 75 73 70 66 64 64 62 61 62 61 59 57 54 53 52 50 49 47 44 42
65 66 67 66 66 66 66 65 64 63 61 60 59 59 58 57 56 57 57 57 57 57 57 56 57 58 59 61 62 65 66 65 65 64 63 63 63 62 59 57 54 52 49 47 46 46 45 43 44 49 55 63 73 81 83 83 85 89 91 90 91 90 88 86 83 78 75 72 67 64 64 63 62 62 61 60 58 57 57 55 52 52 51 47 44
67 67 68 68 68 67 67 66 65 64 63 61 60 60 59 58 57 57 58 58 59 59 59 58 58 59 61 62 64 66 68 68 67 66 65 64 64 63 60 58 55 52 50 48 46 45 44 43 44 47 53 60 69 77 83 85 84 87 90 91 91 91 88 86 84 80 76 74 69 65 64 64 63 62 62 60 59 59 58 57 54 54 53 50 46
68 69 70 69 69 69 68 68 66 65 64 63 62 61 61 59 58 58 58 58 60 60 61 61 60 61 62 64 65 66 68 70 70 70 68 66 66 65 62 59 56 52 50 48 46 44 42 42 44 46 51 58 65 73 81 85 85 86 88 90 91 91 89 85 83 81 78 76 71 66 64 65 64 64 63 62 60 59 58 58 57 55 54 52 49
70 71 72 71 71 70 69 69 68 67 65 64 63 62 62 61 60 60 59 59 60 60 61 62 62 62 63 65 66 67 68 70 71 71 70 68 67 66 62 58 55 52 50 47 45 44 41 41 43 45 48 55 62 69 77 84 86 86 87 88 89 89 88 84 80 78 79 78 74 68 66 66 66 66 65 63 61 60 59 59 59 57 55 54 51
72 73 74 73 73 72 71 70 69 68 66 65 64 63 63 62 62 61 61 61 61 61 62 63 63 64 65 66 67 68 69 70 72 72 70 69 68 66 61 57 54 52 49 46 44 43 41 39 42 44 47 53 60 66 73 81 85 87 87 87 87 87 87 85 80 77 78 79 74 69 68 69 67 67 66 63 60 62 61 60 61 60 56 54 51
74 75 76 76 75 74 73 72 70 69 68 67 66 64 64 63 62 62 61 61 61 62 62 63 64 65 66 67 68 69 70 72 73 73 72 70 67 64 60 55 53 51 48 44 42 42 40 38 40 43 45 50 56 62 69 76 83 86 87 86 86 86 85 85 82 78 78 79 75 71 70 70 68 68 67 64 63 64 63 61 62 61 57 54 52
76 77 77 77 77 75 74 73 72 71 70 68 67 66 65 64 63 62 61 61 61 62 62 63 64 65 67 68 69 69 70 73 74 73 72 70 66 62 57 53 51 48 45 42 41 40 39 37 38 42 45 48 53 59 65 72 79 86 87 86 86 85 83 83 81 78 78 79 77 74 72 71 70 68 67 66 67 66 64 62 62 61 58 55 52
77 78 79 79 78 77 76 74 73 73 71 70 68 67 66 65 63 62 61 61 62 62 63 64 65 66 68 69 69 70 71 73 74 72 70 68 64 59 55 51 48 45 42 40 39 39 38 36 37 40 43 45 49 55 62 68 76 84 88 86 85 84 82 80 79 77 78 80 79 77 75 73 71 69 67 67 68 66 64 63 62 60 58 56 54
79 79 80 80 79 78 77 76 75 74 73 71 69 67 66 64 63 62 62 63 63 63 64 65 66 68 69 70 71 72 73 74 74 72 69 66 62 57 52 48 45 42 39 37 37 38 36 35 35 38 41 43 46 51 59 65 73 81 87 88 85 83 81 79 77 76 77 79 79 78 76 74 72 70 68 68 68 67 65 63 62 60 57 55 54
80 80 81 81 80 79 78 76 76 75 74 72 70 67 65 64 62 62 63 64 64 64 65 66 68 70 70 72 73 74 75 75 74 71 68 64 59 54 50 46 41 38 37 36 35 36 35 33 34 36 38 40 43 48 56 63 70 77 85 88 87 84 81 79 77 75 76 78 78 76 75 74 73 71 70 69 69 68 66 63 62 61 57 54 53
81 82 82 82 81 80 78 77 77 77 75 73 70 67 65 64 63 63 63 64 64 65 66 68 70 71 72 74 76 76 76 76 74 71 67 62 57 52 47 42 38 36 35 34 34 34 33 32 33 33 35 37 40 45 52 59 66 73 81 87 87 85 82 79 77 75 75 76 75 73 74 74 73 72 72 71 69 69 67 64 62 61 57 54 53
83 83 84 83 82 80 78 78 78 77 75 72 69 66 65 64 64 64 64 64 65 66 68 69 70 71 73 76 78 78 78 76 74 70 66 60 55 49 44 39 35 33 33 33 33 33 32 31 31 31 32 34 37 42 48 55 62 70 78 84 86 86 84 80 77 74 73 73 73 72 72 72 71 72 71 70 69 69 68 65 63 61 58 54 54
85 85 85 84 83 80 79 78 78 77 74 71 69 67 65 65 64 65 65 65 66 68 69 70 71 72 75 77 79 81 81 78 73 69 64 58 52 47 41 36 32 30 30 31 32 32 30 29 29 29 30 32 35 39 45 52 58 66 74 80 84 84 83 81 78 74 72 71 71 71 70 67 68 70 70 69 69 69 69 67 65 63 59 56 56
86 86 86 86 84 81 79 78 78 76 74 71 68 67 66 65 66 67 67 67 68 70 70 70 71 74 77 79 80 81 81 79 75 69 63 56 50 45 39 34 30 28 29 30 31 31 29 27 26 26 27 29 32 36 42 49 56 62 70 77 81 82 81 79 77 75 74 72 71 72 70 65 64 66 68 68 69 69 68 68 67 64 60 57 58
87 88 88 87 85 82 79 78 77 75 73 70 67 66 66 67 67 68 69 69 70 71 70 71 73 76 79 82 83 81 79 78 75 69 63 56 49 44 39 34 30 28 28 29 30 30 27 25 23 23 25 27 30 34 39 46 53 59 66 74 79 80 78 77 75 74 74 74 74 75 71 64 62 65 67 68 69 69 67 68 67 64 61 60 60
89 89 88 87 86 84 81 78 76 73 71 68 67 66 67 69 69 69 70 71 71 70 71 73 77 79 81 83 83 80 77 76 74 69 62 56 49 43 38 34 31 28 27 28 30 29 26 24 23 22 24 26 28 31 37 43 49 55 62 69 76 78 77 75 75 75 75 76 76 76 72 65 63 65 68 68 68 68 67 68 67 63 62 63 62
91 90 88 87 87 84 81 78 74 71 70 68 66 66 67 70 70 71 72 73 71 70 73 77 80 81 82 82 80 78 77 75 73 68 61 55 49 42 37 33 30 28 27 28 30 28 25 24 23 23 25 26 26 28 33 39 44 50 57 64 71 75 75 74 75 76 77 77 76 75 72 68 64 65 68 68 67 66 66 66 66 63 61 63 64
92 91 89 87 86 83 80 75 70 69 68 66 65 66 68 70 71 72 74 74 72 73 78 81 81 82 83 81 78 78 76 72 69 65 58 52 48 42 37 33 29 27 27 28 30 28 26 25 25 25 25 23 21 24 29 34 39 45 52 59 67 72 74 74 75 77 78 77 75 74 73 70 66 65 67 68 67 66 67 66 66 64 62 63 65
93 92 89 87 84 81 76 71 67 66 65 64 65 67 68 70 72 74 75 75 75 78 81 81 81 83 83 80 77 77 73 68 65 62 56 51 46 40 36 32 28 27 28 29 29 28 27 26 25 24 21 17 16 19 23 28 33 39 46 54 62 68 72 75 75 76 77 76 75 73 72 71 67 65 67 68 67 67 68 67 66 65 64 64 64
93 92 89 85 82 77 72 69 66 65 64 64 65 68 70 72 74 74 74 78 81 82 82 82 83 83 81 78 76 74 70 68 66 60 54 50 44 38 35 31 27 26 29 29 29 28 28 27 25 23 20 17 15 15 17 22 28 34 40 48 57 64 70 74 75 75 76 76 74 72 71 70 68 64 65 68 68 67 68 68 66 65 65 65 65
93 91 86 82 78 72 68 69 68 66 64 65 68 72 73 73 73 73 76 82 86 84 83 84 82 81 80 79 76 72 69 68 65 58 52 48 43 37 33 30 27 27 30 31 30 29 29 27 26 25 24 21 17 13 14 19 24 30 37 44 53 61 68 72 73 73 74 74 73 72 70 68 65 62 61 65 69 68 67 66 65 64 64 65 66
92 88 83 79 74 68 66 69 69 66 65 67 73 76 76 75 75 75 79 84 84 82 84 84 81 80 82 80 75 70 67 65 62 56 50 46 41 35 31 29 27 28 31 32 32 33 31 29 29 29 28 24 19 15 15 18 22 26 33 40 49 58 65 69 71 72 73 74 72 70 68 64 62 60 59 61 65 66 66 66 65 63 63 65 66
89 85 80 76 71 66 67 68 68 67 69 73 76 77 77 77 77 79 83 83 80 80 84 85 83 82 81 77 72 69 66 63 58 52 48 44 39 34 30 28 28 29 32 34 35 35 33 32 33 33 30 27 22 19 20 21 22 25 29 35 44 53 61 67 70 72 73 72 70 69 67 63 60 58 55 55 60 63 65 66 66 64 63 65 66
87 82 77 74 70 67 68 70 69 71 74 76 76 78 80 80 81 84 86 82 78 81 86 85 83 82 78 73 70 68 66 62 55 49 44 40 37 33 30 28 28 31 34 36 38 37 35 36 37 36 34 30 25 24 25 24 22 23 27 31 38 47 56 64 69 70 71 70 68 67 64 62 59 57 53 52 57 62 64 66 67 66 64 65 67
84 79 76 74 72 71 72 74 75 76 77 78 80 82 83 84 85 87 85 82 81 84 85 83 82 79 74 70 69 67 65 61 54 45 40 36 33 32 30 28 29 33 36 39 42 40 38 39 41 40 38 33 29 28 28 25 23 23 24 27 32 40 51 60 66 69 68 68 67 65 63 61 60 59 55 52 55 60 63 64 64 65 66 66 67
82 79 76 76 76 76 76 78 78 79 80 82 83 84 86 87 88 87 86 86 86 84 82 80 80 76 71 69 69 66 62 58 51 43 37 32 30 30 30 28 30 35 38 42 44 43 40 40 42 43 42 37 34 32 30 27 26 25 24 25 29 35 44 54 62 66 67 66 66 65 63 61 61 62 61 58 55 56 60 62 63 65 66 67 68
81 80 79 79 79 79 80 81 82 82 82 82 83 86 89 90 88 88 88 88 84 82 80 78 75 72 70 70 68 64 58 53 46 40 34 30 28 28 29 28 31 36 40 44 47 45 42 41 41 44 45 42 38 36 34 31 30 29 28 28 29 33 39 48 56 62 64 65 65 64 62 62 62 64 66 65 60 56 56 60 65 67 67 67 69
83 82 82 82 82 81 82 84 86 85 84 85 87 88 88 87 86 87 88 85 81 79 78 74 71 70 70 69 65 60 54 48 43 37 32 29 26 27 28 28 31 38 43 46 49 49 46 44 42 44 48 47 43 41 39 35 33 33 31 31 31 33 36 42 49 56 60 62 63 63 62 61 62 65 68 68 65 60 57 58 63 67 67 67 67
85 85 85 85 85 85 85 87 89 88 88 88 89 86 85 86 86 84 81 80 78 75 72 69 69 70 68 65 61 57 51 45 41 35 30 28 26 26 27 28 31 39 45 48 51 52 50 48 45 45 48 50 47 45 43 40 37 35 34 32 33 33 34 38 44 49 53 57 60 61 61 60 60 62 66 69 69 66 62 59 60 64 66 66 65
88 88 88 88 88 87 88 89 89 89 89 90 89 87 85 84 82 80 78 77 73 69 66 67 68 68 65 61 58 54 49 45 40 35 30 28 27 27 27 27 31 38 46 50 53 55 54 52 49 47 48 52 51 49 46 43 41 39 36 34 33 34 34 36 41 46 50 53 55 56 57 57 55 55 58 63 67 69 68 65 63 64 67 67 67
90 90 90 90 90 89 89 89 90 90 90 90 88 86 82 76 71 72 74 72 66 64 65 67 66 65 62 58 55 53 50 46 41 37 33 29 28 27 26 27 29 37 46 52 54 57 58 57 54 51 50 52 54 52 49 46 45 44 41 37 35 36 36 37 41 46 49 50 50 51 52 53 51 49 49 52 58 64 67 68 68 68 69 69 69
92 91 91 91 91 91 91 90 90 90 89 88 87 83 77 70 64 64 67 67 66 65 65 64 62 61 59 57 55 53 50 46 44 42 37 32 30 28 27 27 28 34 45 53 56 59 61 61 58 56 53 53 55 55 52 49 47 48 46 42 39 39 39 40 42 44 46 48 50 50 50 51 50 49 48 48 51 57 62 67 70 71 70 69 69
93 93 92 91 91 92 91 90 90 90 88 87 84 79 74 71 68 65 66 67 67 64 62 61 60 58 57 56 55 52 49 47 46 45 42 36 33 31 29 28 28 32 41 52 58 60 63 64 63 60 58 56 56 57 56 53 51 51 50 47 44 43 43 43 45 46 47 49 51 51 53 54 53 51 51 51 51 52 56 62 68 72 73 71 70
93 93 93 91 91 90 88 88 89 89 87 84 80 75 72 73 72 69 67 66 64 62 61 61 59 56 54 53 52 51 49 47 46 47 45 40 36 34 32 30 29 31 37 49 58 62 64 66 66 65 63 61 59 59 59 57 55 54 54 52 50 48 47 48 50 52 52 52 52 53 56 59 58 57 56 55 53 49 49 53 60 66 70 71 71
93 91 91 91 90 88 86 84 81 78 78 78 75 72 72 72 70 66 64 63 62 61 60 59 57 55 53 51 49 48 47 45 45 46 46 43 39 36 34 32 31 31 34 44 56 63 66 67 68 68 67 66 64 62 61 60 59 58 58 57 55 54 53 53 54 56 57 56 55 55 58 60 62 63 62 60 56 52 50 49 52 57 61 63 64
92 90 90 90 89 86 84 80 75 71 71 72 69 66 66 67 66 63 62 60 59 58 57 56 54 52 50 48 47 45 44 42 42 44 46 45 42 38 36 35 34 32 33 39 51 61 67 69 69 70 70 70 69 67 64 63 62 62 62 62 61 59 57 57 58 60 60 60 60 59 60 62 63 64 65 64 61 58 55 54 55 56 57 58 59
91 90 88 88 86 83 79 76 72 67 65 65 64 62 63 65 65 62 59 57 56 54 54 53 52 49 47 46 46 44 42 41 41 42 44 45 44 41 39 38 37 36 34 36 45 57 66 71 71 71 72 73 73 72 69 66 65 66 66 66 66 64 62 61 61 62 63 64 65 65 64 64 65 65 65 67 67 64 60 60 62 62 61 62 62
89 87 84 82 81 79 75 72 70 66 63 63 65 64 64 64 63 60 57 54 53 51 50 49 48 47 46 45 44 43 42 41 41 43 44 46 46 44 42 40 39 39 37 36 40 49 61 70 73 74 74 74 75 76 74 70 69 70 70 70 70 70 67 65 64 64 65 66 69 71 69 67 67 67 66 67 70 71 68 66 68 69 67 66 66
85 82 80 78 77 75 73 71 69 66 64 63 63 62 61 61 59 56 54 52 51 49 47 46 45 45 44 44 43 42 42 42 43 44 45 47 47 46 44 43 42 42 40 39 39 44 53 65 73 76 76 75 76 78 79 76 73 73 74 73 73 74 73 70 68 67 66 68 71 75 75 72 71 71 69 67 70 74 74 73 73 74 73 71 70
81 78 76 74 72 71 69 66 64 62 60 59 58 57 56 56 54 52 51 50 48 46 44 43 43 43 42 42 42 42 42 43 44 45 46 47 48 47 47 46 46 45 44 43 42 42 46 56 68 76 78 78 77 79 81 81 79 77 78 78 77 76 77 76 73 70 70 70 71 75 78 78 76 75 74 71 70 73 78 79 79 79 79 78 77
76 74 71 69 67 65 63 61 59 57 55 54 53 52 51 51 50 49 48 47 46 44 42 41 41 41 40 41 41 42 42 43 44 45 46 46 47 48 48 49 50 50 49 47 45 44 45 49 58 69 78 81 80 79 81 84 84 82 82 82 81 79 79 79 78 76 74 73 73 74 77 80 80 80 79 76 73 73 78 82 84 84 83 83 83
71 68 66 63 61 59 57 55 54 52 50 49 49 48 48 47 47 46 45 44 45 44 41 39 39 38 39 40 41 41 42 43 44 45 45 46 46 48 50 52 54 54 54 52 49 48 48 48 51 59 70 79 83 83 82 84 86 87 86 86 85 84 82 82 82 81 80 78 76 75 76 79 81 83 83 81 78 76 78 82 86 88 88 87 86
65 63 60 58 56 54 52 51 50 48 47 46 45 46 45 44 43 43 43 43 43 43 41 39 38 37 38 39 40 41 42 43 44 45 46 47 48 50 52 54 55 56 57 56 53 51 50 50 49 52 59 69 79 85 86 85 86 89 91 90 89 88 87 85 84 84 84 84 82 80 79 79 81 83 84 85 83 81 79 81 85 89 92 92 90
60 57 55 53 52 50 49 48 47 46 44 43 43 43 44 43 43 43 43 42 41 41 40 39 38 38 39 39 40 40 41 42 43 45 46 47 48 51 53 54 56 57 58 58 56 54 53 52 51 51 53 58 67 78 86 88 88 88 91 94 94 93 92 90 88 86 86 87 87 87 85 83 83 84 85 86 87 86 83 81 82 85 89 93 94
55 53 52 50 49 48 47 47 46 45 44 43 42 43 43 43 43 43 42 41 40 40 39 39 39 39 39 39 39 40 40 41 43 44 46 47 48 49 50 52 54 55 56 57 56 55 54 53 52 52 53 54 58 66 76 85 90 91 91 94 96 97 97 95 93 91 90 89 90 91 91 89 87 87 87 88 89 89 89 87 85 84 85 88 91
52 51 50 50 49 48 47 46 46 45 44 43 43 43 42 42 42 41 41 40 39 38 38 38 37 37 37 38 38 39 39 40 41 42 44 45 46 47 48 49 50 51 52 52 53 53 53 53 54 54 55 55 56 59 65 74 84 91 94 94 96 99 101 100 99 97 95 93 92 93 94 94 93 92 91 92 92 92 92 92 91 89 88 87 88
51 50 50 49 49 48 47 46 45 44 43 42 42 42 41 40 39 39 38 37 37 36 36 35 35 35 35 36 37 37 38 38 39 40 41 42 43 45 46 46 47 48 49 49 50 50 50 51 52 53 54 56 57 58 60 65 73 83 91 95 97 99 101 103 104 103 101 99 97 96 96 97 98 97 96 95 96 96 96 96 96 95 93 92 91
49 49 49 48 48 47 46 45 43 42 41 40 40 39 39 38 37 36 35 34 34 34 33 33 33 33 33 34 34 35 35 36 36 37 38 39 40 41 43 44 45 45 46 47 47 48 48 49 49 51 52 54 55 57 59 62 65 72 80 89 95 98 100 103 106 107 107 106 104 102 100 100 101 102 101 100 100 100 100 100 100 100 99 97 96
Wind_Direction
328 329 329 327 326 324 323 322 321 320 319 317 315 313 311 309 308 308 307 305 304 304 303 302 301 301 302 304 305 306 307 308 308 308 307 306 305 303 301 298 295 290 285 280 275 270 265 261 253 243 234 228 227 226 225 222 221 220 219 219 221 224 225 225 225 229 230 228 227 226 225 225 227 230 231 231 231 232 233 234 234 234 235 237 239
327 328 328 327 325 324 323 322 321 320 319 317 316 314 311 310 309 307 306 304 304 303 303 302 301 302 303 304 305 305 306 307 308 308 308 308 307 306 303 300 297 292 286 282 277 272 267 262 256 246 237 230 227 226 225 223 221 221 220 219 220 224 225 224 224 227 230 229 227 226 226 225 226 229 230 231 232 232 234 235 234 235 236 238 240
326 326 327 326 325 324 323 322 321 320 319 317 315 313 310 309 308 307 305 304 303 303 302 302 302 302 303 304 304 305 306 307 308 308 309 309 308 307 304 302 299 294 288 283 279 274 269 264 257 249 239 231 227 226 225 224 222 221 221 220 221 223 224 224 223 225 227 228 227 227 227 226 226 228 229 231 232 233 234 236 236 236 237 239 240
325 325 325 325 324 323 322 321 320 319 318 316 314 312 310 308 307 306 305 304 303 302 301 301 301 301 302 303 304 305 306 307 308 309 310 310 309 307 305 303 299 294 289 285 281 276 272 266 257 249 241 233 227 225 224 224 223 221 221 221 222 223 224 224 224 223 225 227 226 226 227 227 226 228 229 230 231 232 234 236 236 236 237 239 240
324 324 324 324 323 322 322 321 320 319 317 316 314 311 309 308 307 306 305 304 303 302 301 301 301 301 302 303 304 305 307 308 310 311 311 311 310 308 306 303 299 294 290 286 282 278 273 267 258 249 242 234 228 225 224 224 223 222 221 221 222 223 225 225 224 223 225 227 225 224 226 227 227 228 229 230 231 232 233 235 236 236 237 238 238
322 323 323 323 322 322 321 320 319 318 317 315 313 311 309 308 306 305 304 303 302 302 301 301 301 301 302 303 304 305 308 310 312 312 312 312 311 309 306 303 299 294 290 287 284 279 274 267 260 250 241 235 229 225 223 223 223 222 222 221 222 223 224 225 223 222 225 227 225 223 224 226 227 228 228 229 231 232 232 233 234 234 235 235 236
321 322 322 322 322 321 321 320 319 318 316 315 312 310 309 308 307 306 305 303 302 301 301 301 301 302 302 303 304 306 308 311 312 312 313 313 312 309 306 303 298 294 290 288 285 280 274 267 260 251 241 234 229 225 223 222 222 222 222 222 222 222 223 224 223 220 223 225 225 223 223 224 226 228 228 229 230 232 231 231 232 232 233 233 234
320 322 322 322 322 321 320 319 318 317 316 314 312 310 309 308 307 306 305 304 303 302 301 301 302 303 303 303 304 307 310 312 312 312 313 313 312 309 306 302 298 294 291 289 284 279 274 266 259 251 241 232 229 225 222 221 221 221 221 221 222 221 222 224 223 220 221 223 223 222 222 222 224 226 228 227 229 231 230 230 231 231 231 231 231
320 321 321 321 321 321 320 319 317 316 315 314 312 311 309 308 306 305 305 304 304 303 302 303 303 303 303 304 305 308 311 313 313 314 314 314 312 309 306 302 298 295 292 289 283 277 273 266 257 249 240 231 227 225 223 221 220 220 220 221 221 221 221 222 222 219 218 219 219 218 219 220 221 224 225 225 227 229 228 229 230 230 230 230 230
320 320 321 320 320 320 320 318 317 316 315 314 313 311 309 307 306 306 305 305 304 304 304 304 304 304 304 305 307 310 313 314 315 315 315 314 312 309 306 302 299 296 293 288 282 276 271 264 255 246 239 231 226 224 223 221 219 219 219 220 220 220 220 220 220 218 216 216 216 216 217 218 219 221 222 223 225 226 226 228 229 229 229 229 228
319 320 320 320 320 320 319 318 317 316 315 314 312 311 309 307 307 307 307 306 306 305 305 305 305 306 306 307 309 312 314 315 315 316 316 315 312 310 306 303 299 296 292 286 280 275 270 263 252 243 237 232 226 224 222 220 218 218 218 219 219 219 219 219 219 217 215 214 214 214 215 216 217 218 219 221 224 225 224 226 228 229 228 227 227
318 319 319 319 319 319 319 317 317 316 315 313 312 310 309 308 308 308 308 307 307 307 307 307 308 308 309 310 312 313 315 316 317 318 318 316 313 310 308 304 300 296 290 283 277 272 268 261 249 240 236 232 227 223 222 220 217 216 217 218 218 219 219 219 218 217 216 214 214 214 215 215 216 218 218 220 223 223 222 223 226 228 227 226 226
317 318 318 318 319 319 318 317 316 315 314 313 311 310 309 309 309 309 308 307 307 308 309 309 310 311 311 312 314 315 317 318 319 320 320 318 314 312 309 304 300 294 286 279 273 269 265 257 246 238 235 233 228 223 221 220 217 215 215 216 217 217 218 218 218 217 215 214 214 214 215 215 215 217 218 219 220 222 221 221 224 226 226 225 226
317 317 318 318 319 319 318 316 315 314 313 312 311 310 309 309 309 308 308 308 308 309 310 311 312 312 313 314 316 317 318 319 320 321 321 319 316 312 309 304 298 291 283 276 271 267 261 253 244 237 234 233 229 224 222 220 218 215 214 215 215 216 216 216 216 215 214 213 213 213 215 216 216 217 219 218 218 220 220 220 223 224 225 225 227
316 317 317 318 318 318 317 315 314 313 312 311 310 309 309 308 308 308 307 308 309 311 311 312 312 313 314 316 317 318 319 320 322 323 322 320 316 312 308 302 295 288 281 275 269 264 257 249 242 238 234 232 229 225 221 220 218 215 214 214 214 214 215 214 213 212 211 211 211 212 214 216 216 218 219 218 217 218 219 220 221 223 225 227 229
316 317 317 317 317 317 316 314 313 312 311 310 309 309 308 307 307 307 308 309 311 311 312 312 313 314 315 318 319 320 321 322 323 323 323 320 316 311 306 300 292 284 278 272 266 260 253 245 241 239 236 232 229 225 221 219 217 215 214 214 213 213 214 213 211 210 209 209 210 212 213 214 215 218 218 217 216 217 218 220 221 223 225 228 229
316 316 316 316 316 316 315 313 312 311 310 309 308 308 307 307 307 308 309 310 311 312 312 312 314 316 317 319 320 321 322 322 323 324 323 321 316 311 305 296 288 279 272 267 262 255 248 242 239 239 237 233 228 224 221 219 217 214 213 213 213 213 213 213 211 210 209 210 211 213 213 213 215 217 217 216 216 216 217 220 222 224 225 226 228
314 314 315 315 315 315 314 313 311 310 308 307 307 307 307 306 307 308 309 310 312 312 312 313 315 318 319 320 321 322 322 322 323 323 323 320 316 310 303 294 285 277 268 262 257 251 245 238 234 235 237 235 229 224 221 219 217 215 212 212 213 213 213 212 211 209 209 210 212 214 214 214 215 217 217 216 216 215 216 219 223 224 223 223 225
313 314 314 314 314 314 313 312 310 308 307 306 306 306 306 306 307 308 309 311 312 311 312 315 317 319 320 321 321 322 322 322 323 323 322 318 314 308 300 291 283 276 266 256 251 247 240 231 226 229 235 236 230 225 222 220 218 215 213 212 212 213 213 212 211 210 211 211 213 214 214 214 215 216 216 216 215 215 216 219 222 223 221 221 224
312 313 313 313 313 312 311 310 308 306 305 305 305 305 306 306 308 309 310 311 311 312 313 316 318 319 320 321 321 321 322 322 322 322 319 314 311 306 296 287 279 272 261 250 244 241 232 222 219 225 233 235 231 226 222 220 218 216 214 213 212 212 212 212 211 211 212 212 213 214 214 214 215 216 216 216 216 214 215 218 221 221 220 220 223
311 312 312 312 311 310 309 308 306 305 303 303 304 304 305 307 308 309 310 310 311 313 314 316 317 318 320 320 319 320 321 321 320 318 315 310 307 303 293 283 274 266 255 243 237 234 224 214 215 224 232 235 231 225 222 220 218 216 215 213 212 211 212 212 211 212 213 213 213 214 215 215 216 216 217 217 216 214 214 217 220 220 219 220 222
310 310 311 311 310 309 308 307 305 303 303 303 304 304 306 307 308 310 310 310 311 314 315 316 317 319 319 319 319 320 320 318 317 317 313 307 303 298 289 280 270 259 248 237 232 227 218 211 214 221 224 221 216 217 218 218 218 217 215 213 212 211 211 211 211 212 213 213 214 214 215 215 216 217 217 218 217 215 214 215 218 219 219 219 221
309 310 310 310 308 308 307 306 304 303 303 303 303 304 306 307 308 310 310 310 311 313 315 315 316 318 318 318 318 319 317 315 316 316 311 305 300 294 284 275 264 251 240 232 228 220 210 208 211 209 199 189 191 202 210 214 216 215 214 213 211 210 211 211 211 212 213 214 214 215 215 215 216 218 218 218 218 216 214 214 217 219 219 219 221
308 309 309 308 307 306 304 304 304 304 303 303 303 304 306 307 307 309 311 311 311 313 315 315 315 316 316 316 317 316 314 314 315 314 308 302 299 291 279 268 256 242 233 228 221 210 203 203 202 194 183 178 180 193 211 218 217 215 214 212 211 210 210 211 211 212 213 214 214 215 215 215 216 218 219 219 219 217 215 215 217 219 220 220 221
307 308 307 305 305 303 300 301 303 302 302 304 304 305 306 306 306 308 311 311 310 311 314 314 314 314 315 315 314 314 313 313 313 310 306 301 295 287 274 262 249 236 227 221 212 203 199 197 193 185 179 176 177 189 208 218 220 219 216 214 212 210 210 210 211 211 213 213 214 214 214 214 215 217 218 220 220 220 218 218 218 219 221 222 223
306 305 304 303 303 301 298 299 301 300 302 303 304 304 304 305 306 308 310 310 309 309 311 312 311 312 312 312 312 311 311 311 310 307 304 298 290 281 269 257 244 231 223 214 205 199 196 192 187 183 179 176 179 190 201 209 217 222 221 217 214 212 210 210 210 211 212 213 213 213 214 214 214 215 217 220 222 222 221 220 219 220 221 223 224
304 303 302 301 301 300 299 299 300 300 301 303 303 302 303 304 306 307 308 308 307 307 308 308 309 310 310 310 309 309 310 310 309 305 300 293 284 273 262 251 239 227 218 209 201 198 195 189 186 184 181 179 185 195 199 202 210 219 223 221 217 214 212 211 211 212 212 212 212 213 213 213 214 214 216 220 223 222 222 221 221 221 222 223 225
302 302 301 301 300 300 300 300 300 301 301 302 302 302 303 304 305 306 306 306 305 305 306 307 308 309 309 308 308 309 309 309 308 304 297 288 278 267 256 246 234 224 215 206 200 197 194 190 188 186 183 183 190 198 200 200 204 214 222 223 220 218 214 212 212 212 212 212 212 213 213 213 214 213 214 218 222 223 222 222 222 223 224 224 224
300 300 300 300 300 300 300 300 300 300 301 301 301 302 302 303 304 304 304 304 304 304 306 307 307 307 307 307 308 309 308 307 305 302 295 284 272 261 252 242 230 222 214 206 200 197 193 191 191 191 187 185 190 197 199 199 203 209 215 220 222 221 216 213 212 212 212 212 213 213 213 214 214 213 213 216 220 221 221 221 221 223 224 225 225
299 299 299 300 300 300 300 300 300 300 300 301 301 301 301 302 302 303 303 304 304 304 305 306 306 305 306 307 307 308 307 305 302 299 292 281 268 256 247 238 227 220 214 206 201 198 193 192 194 195 192 188 189 194 197 198 201 206 210 213 218 220 217 214 212 211 211 212 213 213 213 214 214 214 215 216 219 220 221 220 220 221 223 225 226
299 299 299 300 300 300 300 300 300 300 300 299 300 300 300 300 301 302 303 303 304 304 304 304 304 304 305 306 306 306 305 303 300 297 289 278 265 251 243 236 226 219 214 208 202 199 195 193 195 197 196 192 190 193 196 198 199 204 209 212 215 217 216 212 210 210 210 211 212 212 213 214 215 215 216 217 219 221 222 221 219 220 222 224 226
298 299 299 300 300 300 299 299 299 299 299 299 299 299 299 300 301 301 302 302 302 302 302 303 303 304 305 305 304 304 304 302 299 296 287 274 262 250 241 234 226 218 214 209 204 200 197 195 196 198 199 197 193 193 196 198 199 201 206 210 213 214 213 210 207 206 207 209 211 211 212 213 215 217 218 219 220 222 224 224 221 219 220 223 225
298 299 299 299 299 299 299 298 298 299 299 299 299 299 300 301 301 300 299 300 300 299 300 301 302 303 303 303 302 302 301 300 297 294 287 273 261 250 241 235 227 219 214 211 207 203 199 197 198 199 201 201 198 195 195 199 202 201 202 206 210 210 209 206 203 201 201 204 207 209 210 211 212 216 219 221 222 223 225 226 223 221 221 223 224
298 298 298 298 298 298 298 298 298 298 298 298 298 299 300 299 298 297 299 300 299 298 298 299 300 300 300 300 300 299 298 297 294 293 288 276 262 252 243 237 230 221 215 212 209 205 202 200 199 200 201 203 202 199 198 201 204 202 199 201 206 208 205 203 201 200 201 201 201 203 206 207 208 212 218 223 225 226 226 225 224 223 224 226 226
297 297 297 297 297 297 297 297 298 298 298 297 297 298 297 295 294 295 297 297 296 296 297 297 298 297 297 297 297 295 294 293 291 289 287 278 265 254 244 237 234 225 217 214 211 208 205 203 202 201 201 203 204 203 201 203 205 202 197 197 202 204 203 200 198 198 198 197 196 198 200 202 203 208 213 219 226 229 228 225 223 223 224 226 228
296 296 296 296 296 296 297 297 297 297 296 296 296 296 295 294 294 294 293 293 293 293 293 294 294 293 292 292 292 290 288 287 284 283 282 278 268 257 247 239 235 228 220 215 213 211 208 206 204 203 202 203 205 205 204 205 205 202 198 196 197 199 201 199 194 192 193 195 197 198 198 198 201 206 211 216 222 227 229 227 224 223 225 226 227
295 295 295 295 295 295 295 296 297 296 295 295 295 294 293 293 294 293 292 291 292 292 292 292 291 291 290 289 287 286 284 280 276 275 275 274 266 258 251 243 236 231 224 218 215 213 211 209 208 206 204 203 205 206 206 206 205 202 200 198 196 195 198 198 195 193 193 196 199 201 201 201 203 206 209 213 217 221 225 227 225 223 225 227 229
294 294 294 294 294 294 294 295 295 294 294 295 295 293 292 292 292 292 291 291 291 292 291 291 291 291 290 288 285 283 281 277 272 268 268 268 263 257 252 247 239 233 227 221 217 214 213 211 210 209 207 205 205 206 206 206 206 204 201 200 197 195 196 199 198 197 197 198 201 203 204 205 208 210 211 211 212 213 216 221 224 224 225 226 229
294 294 294 294 294 293 294 294 294 292 293 294 292 290 290 290 291 291 291 291 291 290 290 290 291 290 289 287 284 282 278 274 268 263 262 262 259 254 251 248 244 237 230 224 219 216 214 213 212 212 210 208 206 207 207 207 207 205 203 202 200 197 197 199 200 201 201 202 204 205 206 206 209 213 214 212 210 209 210 214 220 223 224 224 226
294 294 294 294 294 293 293 293 292 291 291 290 289 288 289 290 290 290 290 290 289 289 289 290 290 288 286 284 282 279 275 270 264 259 257 257 257 254 250 248 246 242 236 229 222 219 217 215 214 214 214 211 209 208 208 208 207 206 205 204 202 201 200 200 202 203 204 206 206 207 207 207 208 211 214 214 212 209 209 212 215 219 222 224 225
294 295 295 294 293 293 293 292 291 288 286 285 285 286 287 288 289 289 289 289 288 289 288 288 287 285 283 280 278 274 271 266 261 257 254 254 254 254 251 248 247 246 242 235 227 222 219 217 216 215 216 215 212 209 209 209 208 206 206 205 205 204 203 203 204 204 205 207 208 208 209 209 209 209 212 215 214 211 211 212 212 214 217 221 223
294 294 294 293 292 292 292 291 289 287 285 283 282 282 283 284 286 287 287 287 287 287 286 285 284 281 279 276 273 269 266 263 259 256 253 253 253 253 252 250 248 247 245 241 235 227 222 220 218 217 216 217 215 212 210 209 208 207 206 206 207 207 207 206 207 208 208 209 210 210 210 211 211 210 211 214 215 213 212 212 212 213 214 216 218
294 294 293 292 292 291 290 289 288 286 284 283 282 281 282 283 284 285 286 286 286 285 285 283 281 278 275 272 268 265 262 260 258 256 254 253 252 252 252 251 250 249 247 244 240 234 227 223 221 219 218 217 217 215 213 211 209 208 208 208 208 210 210 210 211 211 212 213 213 213 212 212 213 212 213 214 216 215 213 213 214 214 213 213 214
294 294 294 293 292 291 290 288 286 285 283 282 282 281 282 282 284 284 285 285 285 284 283 281 279 276 272 268 265 262 260 258 257 256 255 254 252 251 250 250 251 251 249 247 243 240 235 228 224 222 220 218 218 217 216 214 212 210 209 209 210 211 212 213 213 214 214 215 215 216 215 215 215 215 215 216 218 218 216 214 215 217 217 217 217
295 295 294 294 292 291 289 287 286 284 284 283 283 282 282 283 284 284 284 284 284 284 283 281 277 273 269 266 263 261 259 258 256 256 255 253 251 250 249 249 250 251 252 251 248 245 241 236 230 226 223 221 219 219 218 217 215 213 211 211 211 212 213 214 215 215 216 216 217 217 217 217 217 218 218 218 219 221 220 219 218 219 220 222 224
295 295 294 293 292 290 289 287 286 285 285 284 284 284 284 284 283 283 283 282 282 282 282 280 277 272 269 266 263 261 259 257 255 254 254 252 250 249 249 250 250 252 254 255 254 251 247 242 237 231 228 225 223 221 220 219 218 216 214 213 212 213 214 215 216 216 217 218 218 218 218 218 219 219 220 220 221 222 223 223 223 222 222 224 227
294 294 294 293 292 290 289 288 287 286 286 286 285 285 285 285 284 284 283 282 282 281 280 279 277 273 270 268 265 262 260 258 256 255 255 253 252 251 251 251 252 253 255 256 257 255 252 248 243 238 233 230 227 224 222 221 220 219 218 216 215 214 215 216 217 218 218 218 219 220 220 219 219 219 220 221 222 222 222 224 225 226 226 226 227
293 293 293 291 290 289 289 288 288 287 287 286 285 284 284 284 284 284 283 283 282 281 280 278 276 274 271 269 266 263 260 258 256 255 255 255 254 253 253 252 253 254 255 256 257 257 255 251 247 243 239 235 231 228 226 224 222 221 220 219 218 217 216 217 218 219 219 219 219 220 221 221 221 220 220 220 221 222 222 223 224 226 228 229 229
292 291 290 289 288 287 287 286 287 287 286 286 285 284 284 284 284 283 283 283 282 281 280 278 276 273 271 269 267 264 262 260 259 257 257 256 256 256 256 255 255 255 255 255 256 256 254 252 250 247 243 240 236 232 230 227 225 224 223 222 221 220 218 218 219 219 220 220 220 220 221 222 222 222 221 220 221 221 222 222 223 225 227 228 229
290 289 288 287 287 287 286 286 286 286 286 286 285 285 284 284 284 283 283 283 282 281 279 278 276 274 271 269 268 267 266 264 263 262 260 259 259 258 258 257 257 256 256 256 256 255 254 253 251 249 247 244 240 236 233 230 228 227 225 224 223 222 221 220 220 220 220 221 221 221 222 222 223 223 223 222 222 222 222 222 223 224 226 227 228
288 287 287 286 286 287 287 287 287 287 287 286 286 285 285 284 284 283 282 282 281 280 279 278 276 275 274 272 271 270 269 268 267 266 264 263 262 262 261 260 259 258 258 257 257 256 255 254 252 251 249 247 245 241 237 233 231 230 228 227 226 225 224 223 222 222 222 222 222 222 222 223 223 224 224 224 224 223 223 223 223 224 225 227 227
Height
10874 10873 10869 10865 10861 10858 10854 10850 10846 10842 10838 10834 10830 10826 10822 10818 10815 10812 10809 10806 10804 10802 10800 10797 10794 10791 10789 10786 10783 10780 10777 10775 10772 10768 10766 10763 10761 10758 10755 10753 10751 10749 10747 10745 10743 10743 10743 10742 10742 10743 10746 10747 10748 10753 10759 10765 10768 10772 10778 10783 10788 10790 10793 10802 10808 10810 10814 10820 10826 10831 10837 10842 10847 10851 10854 10857 10861 10865 10868 10870 10873 10875 10877 10878 10880
10868 10866 10864 10860 10856 10852 10848 10844 10840 10836 10832 10828 10824 10820 10816 10812 10808 10806 10803 10800 10797 10795 10793 10790 10787 10784 10781 10778 10775 10771 10769 10767 10763 10759 10756 10752 10750 10747 10744 10741 10739 10738 10736 10734 10732 10732 10732 10732 10731 10732 10735 10736 10736 10741 10748 10754 10758 10763 10769 10774 10778 10782 10787 10794 10799 10802 10805 10812 10818 10823 10829 10835 10841 10844 10848 10851 10855 10859 10863 10865 10868 10870 10872 10874 10875
10863 10859 10857 10854 10850 10846 10842 10838 10834 10830 10826 10822 10818 10814 10810 10806 10803 10799 10795 10793 10791 10788 10785 10783 10780 10777 10773 10770 10767 10763 10761 10759 10756 10752 10748 10743 10739 10736 10733 10731 10728 10726 10725 10724 10722 10720 10720 10721 10720 10720 10723 10725 10726 10730 10737 10743 10749 10754 10759 10765 10770 10774 10780 10785 10790 10793 10796 10802 10810 10817 10822 10829 10834 10837 10841 10846 10850 10854 10857 10859 10862 10865 10867 10869 10871
10860 10856 10851 10848 10845 10840 10837 10832 10828 10825 10821 10816 10812 10808 10804 10800 10797 10793 10788 10785 10783 10781 10778 10776 10774 10770 10766 10763 10759 10755 10751 10750 10747 10743 10740 10736 10731 10727 10724 10720 10717 10715 10714 10713 10711 10710 10709 10709 10709 10709 10710 10713 10715 10719 10725 10732 10739 10745 10750 10756 10761 10766 10772 10777 10782 10787 10790 10795 10804 10811 10815 10822 10827 10831 10835 10840 10844 10848 10850 10853 10857 10860 10862 10864 10866
10854 10851 10847 10843 10839 10835 10831 10827 10823 10819 10814 10810 10806 10801 10797 10794 10791 10787 10783 10779 10775 10773 10771 10769 10767 10763 10759 10755 10752 10747 10742 10739 10736 10733 10730 10727 10722 10717 10714 10710 10706 10704 10702 10701 10700 10699 10698 10697 10698 10698 10698 10701 10704 10708 10714 10721 10728 10735 10741 10746 10751 10756 10763 10770 10776 10782 10785 10788 10796 10804 10809 10815 10820 10825 10829 10834 10837 10841 10844 10848 10852 10855 10857 10859 10861
10848 10845 10842 10838 10833 10829 10824 10820 10816 10812 10808 10804 10799 10794 10790 10787 10784 10781 10777 10773 10769 10765 10762 10760 10758 10755 10752 10748 10744 10741 10736 10731 10727 10722 10719 10717 10712 10707 10703 10700 10696 10693 10692 10690 10689 10688 10687 10686 10686 10687 10688 10690 10694 10698 10703 10710 10717 10725 10731 10736 10741 10747 10753 10759 10767 10775 10779 10782 10789 10797 10803 10808 10813 10818 10823 10827 10831 10835 10839 10842 10845 10848 10851 10853 10856
10842 10838 10834 10831 10826 10822 10818 10813 10809 10805 10801 10797 10792 10787 10783 10779 10776 10773 10770 10766 10763 10759 10755 10752 10749 10747 10743 10740 10736 10733 10730 10725 10719 10713 10709 10706 10702 10696 10693 10690 10686 10683 10681 10680 10678 10677 10677 10676 10675 10676 10678 10679 10683 10687 10692 10698 10706 10714 10721 10726 10732 10738 10744 10750 10758 10767 10772 10777 10783 10791 10797 10802 10807 10811 10816 10822 10827 10830 10834 10836 10838 10842 10845 10847 10851
10835 10831 10826 10822 10819 10815 10811 10807 10802 10798 10794 10790 10785 10781 10776 10772 10769 10765 10762 10759 10755 10752 10748 10744 10741 10738 10735 10732 10729 10725 10721 10716 10710 10705 10701 10697 10691 10686 10682 10679 10675 10672 10671 10670 10668 10666 10666 10667 10666 10666 10669 10670 10673 10677 10682 10687 10696 10704 10710 10717 10723 10730 10736 10742 10749 10758 10764 10769 10776 10783 10789 10795 10800 10805 10809 10816 10822 10824 10826 10829 10832 10836 10840 10843 10847
10827 10823 10819 10815 10811 10807 10803 10799 10795 10791 10787 10782 10778 10774 10769 10765 10762 10758 10755 10752 10748 10744 10741 10737 10734 10730 10727 10724 10720 10717 10713 10707 10700 10695 10690 10685 10680 10675 10671 10668 10665 10662 10661 10660 10658 10656 10657 10658 10657 10657 10659 10661 10664 10668 10673 10678 10686 10694 10701 10708 10715 10722 10728 10733 10739 10747 10753 10760 10767 10774 10780 10786 10792 10797 10803 10809 10813 10815 10819 10823 10826 10830 10835 10839 10843
10820 10816 10812 10807 10803 10800 10796 10791 10787 10783 10779 10775 10770 10766 10762 10758 10754 10751 10748 10745 10741 10737 10734 10730 10727 10723 10719 10715 10712 10709 10705 10699 10692 10687 10681 10674 10669 10665 10661 10658 10655 10652 10651 10650 10648 10647 10648 10649 10649 10649 10650 10653 10656 10659 10664 10670 10677 10684 10691 10699 10706 10713 10719 10725 10730 10736 10743 10749 10756 10763 10770 10778 10784 10790 10796 10800 10803 10807 10813 10817 10819 10824 10830 10834 10838
10813 10809 10804 10800 10796 10792 10788 10784 10779 10775 10771 10767 10763 10759 10754 10750 10747 10744 10740 10736 10733 10730 10726 10723 10719 10715 10711 10707 10704 10701 10696 10690 10684 10679 10672 10665 10659 10655 10651 10648 10646 10643 10641 10640 10639 10639 10640 10641 10641 10641 10643 10645 10649 10652 10656 10661 10668 10675 10683 10690 10698 10705 10712 10718 10724 10729 10735 10740 10746 10753 10762 10770 10776 10783 10789 10792 10795 10802 10808 10810 10813 10818 10824 10828 10831
10806 10802 10797 10792 10789 10785 10781 10776 10771 10767 10763 10759 10755 10751 10747 10743 10740 10736 10732 10728 10725 10722 10718 10714 10710 10707 10703 10699 10695 10691 10686 10681 10675 10669 10663 10655 10649 10644 10642 10639 10637 10635 10633 10632 10631 10631 10632 10633 10634 10635 10636 10638 10641 10645 10648 10652 10658 10665 10673 10682 10691 10698 10705 10712 10717 10723 10729 10734 10740 10746 10755 10762 10769 10776 10782 10785 10789 10795 10800 10804 10807 10811 10817 10821 10825
10800 10796 10790 10786 10782 10778 10773 10768 10763 10759 10755 10752 10747 10744 10739 10736 10733 10729 10725 10721 10718 10715 10711 10707 10702 10698 10694 10690 10686 10681 10676 10670 10665 10660 10653 10646 10640 10635 10633 10631 10629 10627 10625 10624 10623 10624 10625 10626 10627 10628 10630 10632 10635 10638 10641 10644 10649 10655 10663 10671 10680 10688 10696 10704 10710 10715 10722 10729 10736 10743 10749 10755 10762 10768 10773 10778 10783 10788 10794 10798 10801 10805 10810 10815 10818
10793 10789 10783 10779 10775 10771 10766 10761 10756 10751 10748 10744 10739 10736 10732 10729 10725 10722 10718 10715 10711 10707 10703 10699 10695 10691 10687 10682 10677 10672 10666 10661 10656 10650 10644 10638 10632 10628 10625 10623 10621 10620 10619 10618 10617 10618 10619 10620 10621 10623 10624 10626 10629 10631 10634 10637 10642 10648 10654 10661 10670 10678 10687 10694 10701 10707 10715 10723 10732 10739 10743 10749 10756 10761 10765 10771 10777 10783 10788 10793 10796 10800 10805 10809 10811
10786 10781 10776 10771 10768 10764 10760 10754 10749 10744 10740 10736 10732 10728 10725 10721 10718 10715 10711 10708 10704 10700 10696 10692 10688 10684 10679 10674 10668 10662 10657 10652 10647 10641 10635 10630 10625 10621 10618 10617 10615 10614 10613 10612 10612 10612 10613 10614 10616 10617 10619 10621 10623 10626 10629 10631 10636 10642 10647 10652 10660 10669 10678 10685 10693 10701 10709 10718 10726 10731 10736 10743 10750 10755 10760 10767 10773 10778 10782 10787 10791 10795 10800 10804 10808
10778 10773 10768 10764 10761 10757 10753 10747 10742 10736 10732 10728 10724 10721 10717 10714 10710 10707 10703 10700 10697 10693 10689 10685 10681 10677 10672 10667 10661 10653 10646 10641 10638 10633 10628 10622 10618 10614 10612 10611 10610 10609 10608 10607 10607 10607 10608 10609 10611 10612 10615 10617 10619 10621 10623 10626 10630 10635 10641 10647 10654 10662 10670 10678 10687 10695 10704 10712 10719 10725 10730 10737 10743 10749 10755 10763 10769 10773 10777 10781 10785 10789 10794 10799 10803
10769 10765 10760 10756 10753 10750 10746 10740 10734 10729 10725 10721 10717 10713 10709 10706 10702 10699 10696 10693 10689 10685 10681 10678 10674 10670 10664 10659 10653 10647 10638 10631 10627 10624 10620 10615 10611 10608 10606 10605 10604 10603 10602 10602 10601 10602 10603 10605 10607 10609 10610 10613 10615 10617 10619 10621 10625 10630 10636 10642 10649 10657 10665 10673 10682 10691 10699 10706 10713 10718 10723 10731 10737 10743 10750 10757 10762 10767 10772 10776 10778 10783 10790 10794 10796
10761 10757 10752 10748 10744 10742 10738 10733 10728 10722 10718 10714 10710 10706 10701 10697 10694 10691 10688 10685 10682 10678 10674 10670 10666 10662 10656 10650 10644 10640 10633 10624 10619 10616 10612 10608 10605 10603 10600 10599 10598 10598 10597 10597 10596 10598 10599 10601 10603 10605 10607 10609 10611 10613 10615 10617 10621 10625 10631 10637 10644 10652 10660 10669 10678 10687 10693 10700 10705 10710 10717 10725 10731 10737 10743 10750 10755 10761 10766 10769 10772 10778 10785 10787 10789
10753 10749 10745 10739 10735 10733 10730 10726 10721 10715 10711 10707 10703 10699 10694 10690 10686 10683 10680 10677 10674 10670 10666 10663 10658 10654 10649 10642 10636 10631 10626 10618 10612 10608 10605 10601 10599 10597 10595 10594 10593 10593 10593 10592 10592 10594 10596 10598 10600 10602 10604 10605 10608 10610 10612 10614 10618 10622 10628 10633 10640 10647 10655 10664 10673 10681 10687 10692 10698 10704 10711 10719 10725 10730 10736 10742 10748 10755 10760 10763 10766 10773 10778 10781 10784
10744 10741 10737 10732 10727 10724 10721 10718 10714 10708 10704 10700 10697 10692 10687 10683 10679 10675 10672 10669 10666 10663 10659 10655 10651 10646 10642 10637 10630 10624 10620 10613 10605 10601 10599 10596 10594 10592 10590 10588 10588 10588 10588 10588 10589 10590 10593 10595 10598 10599 10601 10603 10605 10607 10609 10612 10615 10620 10624 10629 10635 10643 10651 10659 10667 10673 10679 10685 10692 10699 10706 10713 10719 10725 10730 10736 10743 10749 10754 10757 10761 10767 10772 10776 10779
10737 10734 10730 10726 10721 10717 10713 10710 10707 10702 10697 10693 10690 10686 10681 10676 10672 10668 10664 10661 10658 10655 10651 10647 10644 10639 10635 10631 10624 10617 10613 10608 10602 10597 10594 10592 10589 10587 10585 10584 10583 10583 10584 10584 10585 10587 10590 10592 10595 10597 10599 10601 10603 10605 10607 10610 10613 10617 10621 10626 10632 10639 10647 10653 10659 10666 10673 10680 10687 10693 10700 10707 10714 10719 10724 10730 10736 10742 10747 10751 10755 10761 10767 10770 10774
10729 10725 10722 10718 10713 10709 10706 10703 10700 10695 10690 10686 10683 10678 10674 10670 10666 10661 10656 10652 10650 10647 10643 10639 10636 10631 10626 10623 10618 10611 10606 10602 10598 10594 10590 10586 10584 10582 10579 10578 10578 10579 10580 10580 10582 10584 10587 10590 10592 10595 10597 10600 10602 10604 10606 10608 10611 10615 10619 10623 10629 10635 10641 10647 10653 10660 10667 10674 10681 10687 10694 10701 10708 10713 10719 10724 10730 10735 10740 10745 10750 10755 10760 10764 10769
10720 10716 10713 10709 10703 10699 10697 10695 10692 10688 10683 10680 10676 10671 10668 10663 10659 10655 10650 10645 10641 10640 10636 10632 10628 10624 10619 10615 10611 10606 10600 10594 10591 10590 10585 10581 10579 10577 10574 10573 10574 10575 10576 10577 10579 10581 10584 10587 10590 10593 10596 10598 10601 10603 10605 10607 10609 10612 10616 10620 10625 10630 10635 10641 10648 10656 10663 10669 10676 10682 10689 10696 10702 10709 10714 10719 10723 10729 10734 10740 10745 10749 10754 10759 10763
10710 10707 10704 10700 10695 10691 10688 10685 10682 10680 10677 10673 10668 10664 10661 10656 10652 10650 10646 10638 10633 10630 10628 10624 10621 10617 10613 10609 10605 10600 10595 10588 10583 10582 10580 10576 10573 10571 10569 10568 10569 10571 10572 10574 10576 10579 10582 10585 10588 10591 10594 10597 10599 10602 10605 10606 10607 10610 10613 10616 10620 10625 10630 10637 10645 10652 10658 10664 10671 10677 10684 10691 10698 10705 10709 10713 10718 10724 10730 10737 10742 10746 10750 10754 10758
10702 10699 10696 10692 10688 10685 10682 10678 10675 10672 10670 10667 10661 10656 10653 10649 10645 10643 10640 10633 10627 10623 10620 10617 10614 10610 10606 10602 10598 10594 10590 10585 10579 10574 10572 10570 10568 10566 10565 10564 10565 10566 10568 10571 10573 10576 10579 10582 10586 10589 10592 10595 10598 10601 10603 10604 10605 10607 10610 10613 10617 10621 10627 10633 10641 10648 10653 10659 10666 10673 10681 10688 10694 10699 10704 10709 10715 10721 10728 10734 10739 10743 10747 10750 10754
10693 10690 10687 10684 10682 10679 10675 10671 10668 10665 10663 10659 10654 10649 10645 10643 10639 10635 10633 10628 10623 10618 10613 10610 10608 10605 10601 10596 10592 10588 10584 10581 10576 10570 10566 10564 10563 10561 10560 10560 10560 10562 10565 10567 10570 10573 10576 10580 10583 10586 10590 10593 10595 10598 10600 10601 10603 10605 10607 10611 10614 10618 10624 10630 10636 10642 10648 10655 10662 10669 10676 10684 10690 10695 10701 10707 10712 10717 10722 10727 10733 10737 10740 10744 10748
10682 10680 10677 10675 10674 10672 10668 10664 10662 10659 10655 10651 10647 10642 10637 10634 10631 10627 10624 10621 10617 10612 10608 10603 10600 10598 10594 10589 10585 10581 10576 10573 10570 10566 10562 10559 10557 10556 10556 10556 10556 10558 10561 10564 10567 10570 10573 10576 10580 10583 10587 10590 10592 10595 10596 10599 10601 10604 10606 10608 10612 10616 10620 10626 10631 10637 10644 10651 10659 10666 10673 10680 10686 10692 10698 10704 10707 10711 10715 10720 10726 10730 10734 10738 10741
10671 10670 10668 10665 10663 10662 10660 10656 10653 10650 10647 10643 10640 10635 10629 10625 10622 10618 10615 10612 10608 10604 10600 10595 10590 10588 10585 10580 10576 10573 10568 10564 10562 10559 10557 10554 10552 10551 10551 10552 10552 10554 10557 10560 10563 10567 10570 10573 10576 10580 10583 10586 10589 10592 10594 10597 10601 10603 10605 10607 10610 10613 10617 10622 10627 10634 10641 10648 10655 10662 10669 10676 10681 10687 10692 10696 10699 10703 10709 10714 10719 10723 10727 10731 10733
10662 10660 10659 10657 10655 10653 10650 10647 10643 10641 10638 10633 10629 10624 10619 10615 10612 10608 10605 10601 10597 10593 10590 10585 10580 10577 10574 10570 10566 10563 10560 10556 10554 10552 10550 10549 10548 10547 10547 10548 10548 10550 10553 10556 10559 10563 10566 10569 10573 10577 10579 10582 10586 10589 10592 10596 10599 10601 10603 10605 10608 10610 10613 10618 10623 10630 10637 10644 10651 10657 10664 10669 10674 10680 10684 10687 10690 10695 10701 10707 10712 10716 10720 10723 10725
10653 10650 10648 10647 10646 10644 10641 10636 10633 10631 10629 10624 10619 10614 10609 10604 10600 10597 10593 10590 10585 10581 10578 10574 10570 10566 10563 10560 10556 10554 10552 10549 10547 10546 10544 10543 10543 10542 10542 10543 10544 10546 10549 10553 10556 10559 10563 10566 10569 10573 10576 10578 10582 10586 10590 10593 10596 10598 10600 10603 10605 10607 10610 10614 10619 10626 10633 10639 10646 10652 10658 10663 10668 10672 10676 10679 10683 10688 10693 10698 10703 10707 10711 10714 10715
10642 10640 10638 10636 10636 10634 10631 10625 10622 10620 10619 10615 10611 10606 10600 10595 10591 10586 10581 10577 10574 10570 10566 10563 10560 10556 10553 10551 10547 10545 10544 10542 10540 10540 10539 10538 10538 10538 10538 10539 10540 10542 10545 10548 10552 10555 10559 10562 10565 10568 10571 10574 10577 10581 10586 10589 10592 10595 10597 10600 10602 10604 10607 10611 10616 10622 10629 10634 10640 10646 10652 10657 10661 10665 10669 10672 10677 10681 10686 10691 10695 10699 10703 10706 10709
10631 10629 10628 10625 10625 10623 10620 10615 10612 10609 10606 10603 10600 10595 10590 10585 10581 10576 10570 10565 10562 10560 10557 10553 10550 10546 10544 10542 10539 10537 10536 10535 10534 10534 10533 10532 10532 10533 10533 10534 10535 10537 10540 10544 10547 10551 10554 10557 10560 10563 10567 10570 10573 10577 10581 10585 10589 10591 10594 10597 10599 10602 10605 10608 10613 10619 10624 10629 10635 10641 10646 10651 10655 10659 10663 10667 10671 10675 10680 10685 10689 10693 10696 10700 10703
10621 10618 10616 10614 10613 10612 10608 10604 10600 10597 10593 10589 10585 10583 10581 10576 10568 10562 10559 10556 10552 10550 10548 10544 10541 10538 10536 10534 10532 10529 10528 10528 10528 10527 10527 10527 10527 10528 10528 10529 10530 10532 10535 10539 10543 10546 10549 10552 10556 10559 10562 10566 10569 10573 10576 10581 10584 10587 10591 10594 10597 10599 10602 10606 10610 10615 10619 10624 10630 10636 10641 10645 10650 10654 10657 10661 10664 10669 10673 10677 10681 10685 10688 10690 10694
10610 10608 10605 10602 10600 10598 10596 10592 10588 10585 10582 10577 10571 10570 10572 10569 10561 10552 10547 10545 10543 10541 10539 10537 10534 10531 10529 10527 10525 10522 10521 10521 10521 10521 10521 10521 10522 10522 10523 10524 10525 10527 10530 10534 10537 10541 10544 10547 10550 10554 10557 10561 10565 10568 10572 10576 10580 10583 10586 10590 10593 10596 10599 10603 10607 10611 10615 10620 10626 10631 10636 10640 10645 10649 10653 10656 10658 10661 10665 10669 10673 10677 10680 10683 10686
10599 10596 10594 10591 10588 10584 10582 10580 10576 10573 10570 10566 10561 10560 10560 10559 10554 10548 10541 10537 10535 10534 10531 10529 10527 10524 10521 10519 10517 10515 10514 10514 10514 10514 10515 10516 10516 10517 10518 10519 10520 10522 10525 10528 10532 10535 10538 10542 10545 10549 10552 10556 10559 10563 10567 10571 10575 10578 10582 10586 10590 10593 10596 10599 10603 10607 10612 10617 10622 10627 10631 10636 10640 10644 10647 10650 10652 10654 10657 10661 10665 10668 10671 10675 10679
10587 10584 10582 10580 10576 10572 10570 10568 10563 10559 10557 10554 10551 10550 10547 10544 10542 10541 10535 10530 10528 10526 10524 10521 10520 10518 10515 10512 10509 10508 10508 10508 10508 10507 10508 10509 10510 10511 10512 10514 10515 10516 10519 10522 10526 10529 10533 10536 10539 10543 10546 10550 10554 10558 10561 10565 10569 10573 10577 10580 10585 10589 10593 10596 10599 10604 10608 10613 10618 10622 10626 10630 10634 10637 10641 10644 10646 10647 10649 10653 10657 10661 10664 10668 10671
10576 10572 10569 10568 10565 10562 10560 10558 10552 10546 10542 10540 10539 10537 10534 10530 10529 10528 10525 10521 10519 10517 10515 10512 10510 10509 10507 10505 10502 10501 10501 10501 10501 10500 10501 10503 10504 10505 10506 10508 10509 10511 10513 10516 10519 10523 10527 10530 10534 10537 10540 10544 10548 10552 10555 10559 10564 10568 10571 10575 10579 10583 10588 10592 10595 10599 10603 10608 10612 10616 10620 10623 10626 10629 10633 10636 10639 10641 10643 10646 10649 10653 10657 10660 10664
10565 10561 10557 10554 10552 10550 10549 10547 10543 10536 10531 10528 10527 10524 10520 10517 10516 10515 10513 10511 10509 10507 10504 10501 10500 10499 10497 10495 10494 10493 10493 10493 10493 10493 10494 10496 10497 10498 10499 10501 10503 10505 10507 10509 10512 10516 10520 10524 10527 10531 10534 10538 10541 10545 10549 10553 10557 10561 10565 10569 10573 10577 10581 10586 10590 10594 10597 10601 10605 10609 10613 10616 10619 10622 10625 10628 10632 10635 10638 10640 10642 10646 10650 10654 10657
10552 10549 10545 10541 10538 10536 10535 10535 10533 10529 10523 10518 10516 10512 10508 10506 10505 10504 10503 10501 10499 10497 10494 10492 10490 10489 10487 10486 10485 10485 10485 10485 10486 10486 10487 10488 10490 10492 10493 10494 10496 10498 10500 10502 10505 10508 10512 10516 10520 10524 10527 10531 10534 10538 10542 10546 10550 10555 10558 10562 10566 10569 10573 10578 10583 10587 10591 10594 10597 10601 10604 10608 10612 10614 10617 10621 10624 10628 10631 10634 10636 10639 10642 10646 10649
10538 10536 10533 10527 10523 10523 10523 10522 10522 10520 10515 10508 10503 10500 10498 10495 10494 10494 10493 10491 10490 10488 10486 10483 10481 10480 10479 10478 10477 10477 10477 10478 10479 10479 10480 10481 10482 10484 10486 10487 10489 10491 10493 10496 10498 10501 10504 10508 10512 10516 10520 10523 10527 10531 10534 10538 10543 10547 10551 10555 10558 10562 10565 10569 10574 10579 10583 10586 10589 10592 10595 10599 10603 10606 10609 10613 10616 10620 10623 10627 10630 10632 10635 10638 10641
10525 10523 10520 10515 10510 10509 10509 10509 10509 10509 10506 10500 10494 10491 10488 10486 10484 10484 10483 10482 10481 10479 10478 10476 10474 10473 10471 10471 10470 10470 10470 10470 10471 10472 10473 10473 10474 10476 10478 10481 10482 10484 10486 10489 10491 10493 10496 10500 10504 10508 10512 10515 10519 10523 10526 10530 10534 10539 10543 10547 10551 10554 10557 10561 10565 10569 10574 10577 10580 10583 10587 10590 10594 10598 10601 10604 10608 10611 10615 10618 10622 10625 10627 10630 10632
10512 10510 10508 10503 10499 10498 10497 10495 10494 10493 10492 10489 10486 10483 10480 10477 10475 10474 10474 10473 10472 10471 10470 10468 10467 10465 10464 10463 10463 10463 10463 10463 10463 10465 10466 10466 10467 10469 10471 10473 10475 10477 10479 10481 10484 10486 10488 10491 10495 10499 10503 10507 10511 10514 10518 10521 10526 10530 10534 10538 10542 10546 10549 10553 10556 10560 10564 10568 10571 10574 10578 10581 10585 10589 10592 10595 10599 10602 10606 10609 10613 10616 10619 10621 10623
10499 10498 10496 10492 10489 10486 10484 10482 10481 10479 10478 10476 10475 10473 10470 10468 10467 10466 10465 10464 10463 10463 10462 10461 10459 10458 10456 10456 10456 10456 10456 10456 10457 10457 10458 10459 10461 10462 10464 10465 10467 10469 10471 10473 10475 10478 10481 10483 10486 10489 10493 10497 10501 10505 10509 10513 10516 10520 10524 10528 10532 10536 10540 10544 10547 10551 10555 10559 10563 10566 10569 10572 10575 10579 10583 10586 10589 10593 10597 10600 10603 10606 10609 10611 10614
10487 10485 10483 10480 10477 10474 10472 10471 10470 10469 10467 10465 10464 10463 10461 10459 10458 10457 10457 10456 10455 10454 10454 10453 10451 10450 10449 10449 10448 10449 10449 10449 10450 10450 10451 10452 10454 10455 10457 10458 10459 10460 10462 10464 10467 10469 10472 10475 10478 10481 10484 10488 10492 10496 10500 10503 10507 10511 10514 10518 10522 10526 10530 10534 10538 10542 10546 10550 10553 10557 10560 10564 10566 10569 10573 10576 10580 10584 10588 10590 10593 10596 10598 10601 10603
10477 10474 10471 10469 10466 10464 10462 10460 10459 10458 10457 10456 10455 10454 10453 10451 10450 10449 10449 10448 10447 10446 10446 10445 10444 10443 10442 10442 10442 10442 10442 10443 10443 10444 10444 10445 10447 10448 10449 10450 10450 10451 10453 10455 10458 10460 10463 10466 10469 10472 10475 10478 10482 10486 10490 10494 10497 10501 10505 10508 10512 10516 10520 10524 10527 10532 10535 10540 10543 10547 10551 10554 10557 10560 10564 10567 10570 10574 10578 10581 10583 10586 10588 10591 10593
10467 10464 10462 10459 10457 10455 10453 10451 10450 10449 10448 10447 10446 10445 10444 10444 10443 10442 10441 10441 10439 10438 10438 10438 10437 10436 10436 10435 10435 10435 10435 10435 10436 10436 10437 10438 10439 10440 10441 10442 10443 10443 10444 10446 10448 10451 10453 10456 10459 10463 10465 10468 10472 10475 10479 10483 10487 10491 10495 10498 10502 10505 10509 10513 10517 10521 10525 10529 10533 10537 10540 10544 10547 10551 10554 10557 10560 10564 10568 10571 10574 10576 10578 10580 10582
10458 10456 10453 10451 10449 10446 10445 10443 10442 10441 10440 10440 10439 10437 10436 10435 10435 10434 10433 10433 10432 10431 10430 10430 10430 10430 10429 10429 10428 10428 10428 10428 10429 10429 10430 10430 10431 10432 10433 10434 10434 10435 10436 10437 10438 10440 10443 10446 10449 10452 10456 10458 10462 10465 10469 10472 10476 10480 10484 10488 10492 10495 10498 10502 10506 10510 10514 10517 10521 10525 10529 10533 10536 10540 10543 10546 10550 10553 10557 10560 10564 10566 10568 10570 10572
10450 10448 10446 10443 10441 10439 10437 10436 10434 10434 10433 10432 10432 10430 10429 10428 10427 10426 10425 10425 10425 10424 10424 10423 10423 10423 10422 10421 10421 10421 10421 10421 10421 10422 10422 10423 10423 10424 10425 10426 10426 10427 10428 10428 10429 10431 10433 10435 10438 10441 10444 10448 10451 10454 10457 10461 10465 10469 10473 10477 10481 10484 10487 10491 10494 10498 10502 10506 10509 10513 10517 10521 10524 10528 10531 10534 10538 10542 10545 10548 10552 10555 10558 10560 10562
10443 10441 10439 10436 10434 10432 10431 10429 10428 10427 10426 10425 10425 10423 10422 10421 10420 10419 10418 10418 10417 10417 10417 10416 10416 10416 10415 10415 10414 10414 10414 10414 10414 10414 10415 10415 10415 10416 10417 10417 10418 10419 10419 10420 10421 10422 10423 10425 10427 10430 10433 10436 10439 10442 10446 10449 10452 10456 10460 10464 10468 10472 10476 10479 10482 10486 10490 10493 10497 10501 10504 10508 10512 10515 10519 10522 10525 10529 10532 10536 10539 10542 10545 10548 10551
10436 10433 10431 10429 10427 10425 10424 10423 10422 10421 10420 10419 10418 10416 10415 10415 10414 10413 10412 10412 10411 10410 10410 10409 10409 10409 10409 10408 10407 10407 10407 10407 10407 10407 10407 10408 10408 10408 10409 10409 10410 10411 10411 10412 10412 10413 10415 10416 10418 10419 10422 10424 10427 10430 10434 10436 10439 10443 10447 10451 10455 10459 10463 10466 10470 10473 10477 10480 10484 10488 10491 10495 10498 10502 10506 10509 10512 10515 10519 10522 10525 10529 10532 10535 10538
10429 10427 10424 10422 10420 10418 10417 10416 10415 10414 10413 10412 10411 10410 10409 10408 10408 10407 10406 10406 10405 10404 10404 10403 10403 10402 10402 10402 10401 10401 10401 10401 10400 10400 10401 10401 10401 10401 10401 10401 10402 10402 10403 10404 10405 10405 10406 10407 10409 10410 10412 10413 10416 10418 10421 10425 10427 10430 10434 10437 10441 10445 10449 10453 10457 10460 10464 10467 10471 10475 10478 10482 10485 10489 10492 10496 10499 10502 10505 10509 10512 10515 10518 10521 10524